[[{"header":{"parameterUnit":"m.s-1","parameterCategory":1,"la1":30.2991,"la2":30.254,"lo1":-89.0895,"lo2":-89.0444,"dy":0.0017,"dx":0.0017,"nx":28,"ny":28,"refTime":"2023-09-27T09:00:00:Z","depth":0,"parameterNumber":2,"parameterNumberName":"U-component_of_WINDS"},"data":[0,0,0,0,0,0,0,0,0,0,0,0,0,0,0,0,0,0,0,0,0,0,0,0,0,0,0,0,0,0,0,0,0,0,0,0,0,0,0,0,0,0,0,0,0,0,0,0,0,0,0,0,0,0,0,0,0,0,-2.4729,-2.4728,0,-2.4695,-2.4695,-2.4694,-2.4586,-2.4584,-2.4582,-2.4579,-2.4547,-2.4548,-2.455,0,0,0,0,0,0,0,0,0,0,0,0,0,-2.4702,-2.4703,-2.4729,-2.4728,-2.4728,-2.4695,-2.4695,-2.4694,-2.4587,-2.4584,-2.4581,-2.4578,-2.4546,-2.4548,-2.455,0,0,0,0,0,0,0,0,0,0,0,0,0,-2.4696,-2.4704,-2.4729,-2.467,-2.4665,-2.4695,-2.4695,-2.4694,-2.4587,-2.4584,-2.458,-2.4577,-2.4546,-2.4548,-2.455,-2.4635,0,0,-2.4556,-2.4557,0,0,0,0,0,0,0,0,-2.4696,-2.4697,-2.4679,-2.4674,-2.4668,-2.4641,-2.4673,-2.4674,-2.4588,-2.4617,-2.4579,-2.4575,-2.4581,-2.458,-2.4582,-2.4633,-2.4632,-2.4556,-2.4558,-2.4559,-2.4559,0,0,0,0,0,0,0,-2.4697,-2.4698,-2.4715,-2.4679,-2.4672,-2.4646,-2.4642,-2.4673,-2.462,-2.4614,-2.4606,-2.4603,-2.4578,-2.458,-2.458,-2.4631,-2.4556,-2.4558,-2.4559,-2.456,-2.4751,-2.4755,0,0,0,0,0,0,-2.4705,-2.4699,-2.4716,-2.4714,-2.4674,-2.465,-2.4644,-2.4653,-2.4619,-2.461,-2.4607,-2.4599,-2.4578,-2.4578,-2.4579,-2.4676,-2.4559,-2.456,-2.4562,-2.4747,-2.4752,-2.4756,0,0,0,0,0,0,-2.4705,-2.4708,-2.4718,-2.4704,-2.4704,-2.4654,-2.4665,-2.4655,-2.4657,-2.4613,-2.4604,-2.4619,-2.4576,-2.4576,-2.4622,-2.4673,-2.4561,-2.4563,-2.4743,-2.4749,-2.4754,-2.4871,0,0,0,0,0,0,-2.4705,-2.4709,-2.474,-2.4706,-2.4705,-2.4761,-2.4668,-2.4657,-2.4661,-2.465,-2.4622,-2.4614,-2.4573,-2.4619,-2.4624,-2.4674,-2.4565,-2.4738,-2.4746,-2.4752,-2.4862,-2.488,-2.4895,0,0,0,0,0,-2.4704,-2.4774,-2.4742,-2.4745,-2.4743,-2.4764,-2.4763,-2.4713,-2.4665,-2.4696,-2.4669,-2.4615,-2.4667,-2.4625,-2.4629,-2.4681,-2.4735,-2.4743,-2.4752,-2.4855,-2.4876,-2.4895,0,0,0,0,0,0,-2.4816,-2.4769,-2.4732,-2.4793,-2.4783,-2.4746,-2.4783,-2.4738,-2.4742,-2.4732,-2.467,-2.4665,-2.472,-2.4705,-2.4658,-2.4761,-2.4692,-2.4702,-2.4769,-2.4789,-2.4805,-2.4807,-2.4567,0,0,0,0,0,-2.4848,-2.4868,-2.4826,-2.4884,-2.4881,-2.4834,-2.4841,-2.4803,-2.4791,-2.4786,-2.4762,-2.4752,-2.4766,-2.4777,-2.4787,-2.486,-2.4852,-2.4898,-2.4914,-2.4928,-2.4937,-2.4974,-2.4994,-2.4785,-2.4785,-2.4784,0,0,-2.4913,-2.489,-2.4907,-2.4906,-2.4894,-2.4917,-2.4831,-2.4859,-2.4876,-2.4791,-2.4832,-2.4814,-2.48,-2.4859,-2.4884,-2.4848,-2.4993,-2.4939,-2.495,-2.4951,-2.4985,-2.5005,-2.5023,-2.479,-2.4789,-2.4788,0,0,-2.5044,-2.5029,-2.5075,-2.5065,-2.5048,-2.5016,-2.5028,-2.4997,-2.4981,-2.5022,-2.4959,-2.4979,-2.5004,-2.4996,-2.4996,-2.5126,-2.5077,-2.5131,-2.5217,-2.5254,-2.527,-2.5285,-2.5331,-2.5348,-2.514,-2.5141,-2.5141,0,-2.5128,-2.516,-2.5105,-2.5138,-2.5139,-2.5063,-2.511,-2.5103,-2.5091,-2.5094,-2.5054,-2.5085,-2.507,-2.5126,-2.5158,-2.516,-2.5172,-2.5133,-2.5272,-2.5286,-2.5299,-2.5342,-2.536,-2.5147,-2.5147,-2.5146,-2.5145,0,-2.5264,-2.5287,-2.5327,-2.5316,-2.5322,-2.5362,-2.5314,-2.5327,-2.529,-2.5263,-2.5305,-2.5285,-2.529,-2.5301,-2.5265,-2.5353,-2.5331,-2.5283,-2.5212,-2.5326,-2.5366,-2.5382,-2.5157,-2.5154,-2.5153,-2.5151,0,0,-2.5463,-2.5422,-2.5438,-2.5432,-2.5408,-2.5425,-2.5462,-2.5467,-2.5479,-2.5474,-2.5503,-2.5527,-2.5482,-2.5482,-2.5444,-2.5477,-2.5581,-2.5424,-2.5423,-2.5454,-2.5678,-2.5714,-2.5734,-2.5549,-2.5552,-2.5555,-2.5679,0,-2.5587,-2.5646,-2.5599,-2.5667,-2.5688,-2.5617,-2.5649,-2.5639,-2.5615,-2.563,-2.5603,-2.5621,-2.556,-2.556,-2.5589,-2.5563,-2.5625,-2.5553,-2.5577,-2.5578,-2.5582,-2.5755,-2.5793,-2.5911,-2.5694,-2.5697,-2.5698,0,-2.5739,-2.574,-2.5811,-2.5782,-2.579,-2.5819,-2.582,-2.5835,-2.5822,-2.5802,-2.5802,-2.5756,-2.5791,-2.5723,-2.577,-2.5722,-2.5729,-2.5718,-2.5721,-2.5721,-2.5645,-2.5759,-2.5947,-2.5965,-2.5722,-2.572,-2.5719,0,-2.5877,-2.5896,-2.5941,-2.5938,-2.5907,-2.5929,-2.5917,-2.59,-2.5906,-2.5907,-2.5911,-2.5917,-2.592,-2.5925,-2.5882,-2.5836,-2.5936,-2.5863,-2.5921,-2.5922,-2.5944,-2.5943,-2.6136,-2.595,-2.595,-2.595,-2.5949,0,-2.602,-2.6066,-2.6002,-2.603,-2.6079,-2.6025,-2.6076,-2.6056,-2.6042,-2.6065,-2.6005,-2.6028,-2.597,-2.5987,-2.5954,-2.5999,-2.6001,-2.5986,-2.5977,-2.5991,-2.5993,-2.5995,-2.5985,-2.5954,-2.5953,-2.5952,-2.5952,0,-2.6182,-2.6141,-2.6185,-2.6152,-2.6144,-2.6183,-2.6154,-2.6179,-2.6151,-2.6181,-2.6185,-2.6142,-2.6159,-2.6117,-2.6129,-2.6107,-2.617,-2.6148,-2.6175,-2.6168,-2.6227,-2.6222,-2.6427,-2.6452,-2.6251,-2.6253,-2.6255,0,-2.6276,-2.6309,-2.628,-2.629,-2.6282,-2.63,-2.6305,-2.6254,-2.6262,-2.6251,-2.6277,-2.6289,-2.6296,-2.6328,-2.6298,-2.6307,-2.6284,-2.6355,-2.6285,-2.6298,-2.6285,-2.6283,-2.6286,-2.637,-2.6372,-2.6374,-2.6376,0,-2.6446,-2.6424,-2.6434,-2.6438,-2.6447,-2.6447,-2.6444,-2.6456,-2.6401,-2.6414,-2.6431,-2.6437,-2.6448,-2.6462,-2.6464,-2.6452,-2.6406,-2.6398,-2.6412,-2.6427,-2.6441,-2.6434,-2.6214,-2.6393,-2.6392,-2.639,-2.6389,-2.6389,-2.6576,-2.6603,-2.6586,-2.66,-2.6592,-2.659,-2.6611,-2.6586,-2.6599,-2.6604,-2.6573,-2.6597,-2.6584,-2.6582,-2.6576,-2.6594,-2.6562,-2.6582,-2.6586,-2.6592,-2.6602,-2.6438,-2.6594,-2.6594,-2.6593,-2.6593,-2.6592,0,-2.6743,-2.6729,-2.6742,-2.6739,-2.675,-2.6704,-2.6698,-2.6711,-2.6732,-2.6724,-2.6732,-2.6752,-2.6765,-2.6737,-2.6745,-2.6766,-2.6745,-2.677,-2.6767,-2.6766,-2.663,-2.6617,-2.6787,-2.6787,-2.6787,-2.6787,-2.6787,-2.6787,-2.6831,-2.6873,-2.685,-2.6888,-2.6874,-2.6896,-2.6897,-2.6895,-2.6888,-2.6913,-2.6923,-2.6904,-2.6888,-2.6896,-2.6906,-2.6897,-2.6903,-2.6936,-2.692,-2.6794,-2.6775,-2.6757,-2.6744,-2.6938,-2.6938,-2.7054,-2.7055,-2.7056]},{"header":{"parameterUnit":"m.s-1","parameterCategory":1,"la1":30.2991,"la2":30.254,"lo1":-89.0895,"lo2":-89.0444,"dy":0.0017,"dx":0.0017,"nx":28,"ny":28,"refTime":"2023-09-27T09:00:00:Z","depth":0,"parameterNumber":3,"parameterNumberName":"V-component_of_WINDS"},"data":[0,0,0,0,0,0,0,0,0,0,0,0,0,0,0,0,0,0,0,0,0,0,0,0,0,0,0,0,0,0,0,0,0,0,0,0,0,0,0,0,0,0,0,0,0,0,0,0,0,0,0,0,0,0,0,0,0,0,-2.6889,-2.6891,0,-2.7131,-2.7134,-2.7136,-2.7218,-2.7217,-2.7216,-2.7215,-2.7455,-2.7462,-2.7469,0,0,0,0,0,0,0,0,0,0,0,0,0,-2.6489,-2.6496,-2.6888,-2.6891,-2.6895,-2.713,-2.7134,-2.7137,-2.7218,-2.7217,-2.7215,-2.7214,-2.7452,-2.7461,-2.747,0,0,0,0,0,0,0,0,0,0,0,0,0,-2.669,-2.6498,-2.6888,-2.6963,-2.6973,-2.713,-2.7134,-2.7138,-2.7218,-2.7217,-2.7215,-2.7214,-2.745,-2.746,-2.7471,-2.7568,0,0,-2.7505,-2.7509,0,0,0,0,0,0,0,0,-2.6678,-2.6704,-2.6949,-2.6959,-2.6969,-2.7143,-2.7081,-2.7282,-2.7218,-2.7125,-2.7215,-2.7213,-2.7352,-2.7371,-2.7419,-2.7579,-2.759,-2.7506,-2.7512,-2.7517,-2.752,0,0,0,0,0,0,0,-2.6664,-2.6694,-2.6984,-2.6953,-2.6965,-2.6983,-2.701,-2.7119,-2.7243,-2.7133,-2.7139,-2.7167,-2.7357,-2.7408,-2.7425,-2.7593,-2.7505,-2.7515,-2.7522,-2.7526,-2.7846,-2.7848,0,0,0,0,0,0,-2.6639,-2.6682,-2.6976,-2.6991,-2.6817,-2.6991,-2.7022,-2.7088,-2.7242,-2.7264,-2.7168,-2.717,-2.739,-2.7412,-2.7434,-2.7559,-2.7517,-2.7527,-2.7533,-2.7844,-2.7847,-2.7849,0,0,0,0,0,0,-2.663,-2.6664,-2.6967,-2.6839,-2.6879,-2.7,-2.7074,-2.7094,-2.7146,-2.7269,-2.7291,-2.7199,-2.739,-2.7419,-2.7535,-2.7568,-2.7532,-2.7542,-2.7842,-2.7845,-2.7848,-2.7808,0,0,0,0,0,0,-2.6618,-2.666,-2.67,-2.6839,-2.6885,-2.7066,-2.7076,-2.71,-2.7165,-2.717,-2.7304,-2.7324,-2.7391,-2.7518,-2.7546,-2.7583,-2.7551,-2.784,-2.7843,-2.7847,-2.7807,-2.7809,-2.7811,0,0,0,0,0,-2.6603,-2.6677,-2.6702,-2.6737,-2.6938,-2.7067,-2.7094,-2.7171,-2.7168,-2.7208,-2.7287,-2.732,-2.756,-2.7529,-2.7561,-2.7602,-2.7838,-2.7842,-2.7846,-2.7806,-2.7809,-2.7811,0,0,0,0,0,0,-2.6536,-2.6697,-2.6726,-2.6848,-2.6944,-2.7081,-2.7134,-2.7172,-2.7269,-2.7269,-2.7358,-2.7388,-2.7497,-2.7561,-2.7524,-2.7704,-2.77,-2.7711,-2.7659,-2.7663,-2.7665,-2.7647,-2.756,0,0,0,0,0,-2.6536,-2.663,-2.6765,-2.6859,-2.6906,-2.7011,-2.7071,-2.7123,-2.7224,-2.7265,-2.7353,-2.7448,-2.7546,-2.7607,-2.7704,-2.7817,-2.7847,-2.786,-2.7862,-2.7863,-2.7872,-2.7937,-2.7944,-2.7863,-2.7863,-2.7863,0,0,-2.6535,-2.6635,-2.6688,-2.6848,-2.6929,-2.7022,-2.7045,-2.7143,-2.7213,-2.7279,-2.7395,-2.7463,-2.7575,-2.7691,-2.7746,-2.7747,-2.7901,-2.7869,-2.7869,-2.7877,-2.7942,-2.7949,-2.7956,-2.7866,-2.7865,-2.7865,0,0,-2.6583,-2.6668,-2.6757,-2.6838,-2.6961,-2.703,-2.7051,-2.7184,-2.7232,-2.7351,-2.7403,-2.7486,-2.7651,-2.773,-2.7791,-2.787,-2.7903,-2.7898,-2.7909,-2.7972,-2.7978,-2.7984,-2.8012,-2.8021,-2.7906,-2.7906,-2.7906,0,-2.6566,-2.6712,-2.6796,-2.6893,-2.6961,-2.7029,-2.7118,-2.7191,-2.7338,-2.7382,-2.7382,-2.7593,-2.7673,-2.7808,-2.7827,-2.7875,-2.79,-2.7884,-2.7971,-2.7978,-2.7985,-2.8013,-2.8023,-2.7905,-2.7905,-2.7905,-2.7905,0,-2.6686,-2.6786,-2.6842,-2.6986,-2.706,-2.7152,-2.7249,-2.7314,-2.7359,-2.7428,-2.7548,-2.7647,-2.7765,-2.78,-2.7844,-2.7942,-2.7939,-2.7954,-2.7952,-2.799,-2.8017,-2.8029,-2.7903,-2.7903,-2.7903,-2.7904,0,0,-2.6697,-2.6888,-2.6907,-2.6974,-2.7114,-2.7192,-2.7286,-2.7405,-2.7459,-2.7557,-2.7638,-2.7777,-2.7792,-2.7862,-2.7915,-2.797,-2.8026,-2.7978,-2.7982,-2.7984,-2.814,-2.8128,-2.8139,-2.8049,-2.8052,-2.8053,-2.8131,0,-2.6763,-2.6939,-2.7018,-2.7157,-2.725,-2.7315,-2.7398,-2.7492,-2.7559,-2.7646,-2.7719,-2.7817,-2.7829,-2.7871,-2.7928,-2.8007,-2.8058,-2.8002,-2.8124,-2.8127,-2.8094,-2.8154,-2.8142,-2.821,-2.8142,-2.8144,-2.8145,0,-2.6864,-2.6967,-2.7115,-2.7247,-2.7289,-2.7362,-2.7477,-2.756,-2.7667,-2.7712,-2.7791,-2.7842,-2.7942,-2.7933,-2.8071,-2.8032,-2.8086,-2.8132,-2.8136,-2.8151,-2.8139,-2.817,-2.8234,-2.8244,-2.8163,-2.8162,-2.816,0,-2.6858,-2.7033,-2.7145,-2.72,-2.7355,-2.7405,-2.7471,-2.7578,-2.7644,-2.7744,-2.7788,-2.7896,-2.7955,-2.8037,-2.8116,-2.8102,-2.8247,-2.8244,-2.8286,-2.8284,-2.8313,-2.831,-2.8386,-2.8347,-2.8347,-2.8347,-2.8346,0,-2.6924,-2.7013,-2.7145,-2.7214,-2.7315,-2.7404,-2.75,-2.7571,-2.7665,-2.7748,-2.7809,-2.7885,-2.7984,-2.8071,-2.8133,-2.8239,-2.8264,-2.8302,-2.8318,-2.8298,-2.8293,-2.8334,-2.8332,-2.835,-2.8349,-2.8348,-2.8348,0,-2.6935,-2.7027,-2.7154,-2.7291,-2.7328,-2.7396,-2.7513,-2.7581,-2.7652,-2.7755,-2.7784,-2.7894,-2.8001,-2.8088,-2.8225,-2.8267,-2.8377,-2.8394,-2.8342,-2.835,-2.8387,-2.8382,-2.8493,-2.8512,-2.8458,-2.8459,-2.8459,0,-2.6971,-2.7041,-2.7187,-2.7249,-2.7315,-2.7412,-2.7482,-2.7571,-2.764,-2.7769,-2.7821,-2.7932,-2.8026,-2.8193,-2.8283,-2.8389,-2.841,-2.8441,-2.8426,-2.8403,-2.8411,-2.8406,-2.8413,-2.8442,-2.8442,-2.8443,-2.8443,0,-2.7025,-2.7068,-2.7167,-2.7282,-2.7363,-2.7457,-2.7552,-2.7598,-2.7705,-2.7778,-2.789,-2.7963,-2.8106,-2.8215,-2.8331,-2.8397,-2.8437,-2.8447,-2.8462,-2.8442,-2.8409,-2.8428,-2.8346,-2.8444,-2.8444,-2.8444,-2.8444,-2.8444,-2.7051,-2.7117,-2.7231,-2.7338,-2.742,-2.7508,-2.758,-2.766,-2.7756,-2.7881,-2.7927,-2.8041,-2.8147,-2.8307,-2.8374,-2.8463,-2.8467,-2.8489,-2.8494,-2.8498,-2.8496,-2.8395,-2.8484,-2.8484,-2.8484,-2.8484,-2.8484,0,-2.7109,-2.7186,-2.7284,-2.7418,-2.7502,-2.7536,-2.7643,-2.7711,-2.7811,-2.7908,-2.8,-2.8127,-2.8234,-2.8334,-2.8445,-2.8497,-2.8518,-2.8523,-2.852,-2.8535,-2.8486,-2.8462,-2.8504,-2.8504,-2.8504,-2.8504,-2.8504,-2.8504,-2.7149,-2.7263,-2.7319,-2.7474,-2.755,-2.7664,-2.7723,-2.7803,-2.7881,-2.8022,-2.8112,-2.8178,-2.8275,-2.8394,-2.8493,-2.852,-2.8557,-2.8557,-2.8588,-2.8541,-2.8538,-2.8535,-2.8513,-2.8565,-2.8565,-2.863,-2.8631,-2.8631]}]]